OPS 4682 DEB, 38423

Orbit data source: Space-Track

OPS 4682 DEB, 38423 is space debris in LEO originally from a launch on Sat, 03 Apr 1965 UTC launched from the Air Force Western Test Range (AFWTR). Debris objects in space refer to the collection of defunct objects orbiting the Earth. Examples of debris include non-operational satellites, rocket bodies, and fragments generated from explosions, collisions, or faulty payload assembly.

Loading next visibility...
Identifier
38423, 1965-027EC
Orbit
LEO
Country
Flag of USUS
Related business
Manufacturer
Unknown
Mission
Spacecraft
Bus & Motor
Unknown
Mass
Unknown
Launch date (UTC)
1965-04-03 (61 years ago)
Launch vehicle
Unknown
Launch site
Air Force Western Test Range (AFWTR)
Object type
Payload
Rocket body
Debris
Shape & HBR
Unknown shape, 0.1 m
Radar Cross Section
Small (<0.1 m²)

Expand to show TLE details & history
Last TLE update: 23 hours ago

TLE from 23 hours ago
0 OPS 4682 DEB
1 38423U 65027EC  25349.31393706  .00000150  00000-0  50521-3 0  9997
2 38423  90.2460   7.6294 0019484   7.8945 352.2477 12.95305510610312
Epoch: 2025-12-15T07:32Z
TLE epoch observation values (Epoch: 2025-12-15T07:32:04.161Z)
Latitude
-0.00009°
Longitude
170.39778°
Altitude
1,268.624 km
Speed
7.228 km/s
True Right ascension
00h 30m 31s
True Declination
0° 00' 00"
Sunlit
Object was in daylight at epoch
Visualization orbit readout
Latitude
Unknown
Longitude
Unknown
Altitude
Unknown
Speed
Unknown
Apparent Right ascension
Unknown
Apparent Declination
Unknown
Sunlit
N/A
Visualization observer readout
Local Sidereal Time
05:17:11
Azimuth
Unknown
Elevation
Unknown
Doppler factor
Unknown
Orbital elements
Apogee altitude
1,292.586 km
Perigee altitude
1,262.753 km
Semi-major axis
7,655.806 km
Eccentricity
0.00195
Inclination
90.246°
RAAN
7.6294°
Arg. of periapsis
7.8945°
True anomaly
352.21751°
Mean anomaly
352.2477°
Eccentric anomaly
352.23261°
Mean motion
3.24009 °/min
Orbital period
111.11 mins
BSTAR
0.00050521
Loading maneuver chart data...
Computing Atmospheric mass density...
Loading historical data...
Loading historical data...
Loading historical data...
Loading historical data...
Loading historical data...
Loading historical data...
Loading historical data...

Documentation

Showing up to 5 results
|